sat.trackr.live / text

‹ back to catalog

STARLINK-37391

NORAD 68779 · 2026-086P

PAYLOAD ACTIVE UNKNOWN

§ Identity

Operator
Country
US
Launch date
2026-04-19
Launch site
AFWTR
Launch vehicle
Mass (kg)
RCS (m²)

Purposes: comms

External: N2YO · Heavens-Above · Gunter

§ Orbital elements

Epoch: 2026-09-19T20:04:05.589984Z

Period
93.90 min
Inclination
97.2863°
Eccentricity
0.0001303
Mean motion
15.33467553 rev/d
Perigee alt
464.6 km
Apogee alt
466.4 km
Semi-major
6,843.6 km
B*
5.6500e-4
RAAN
298.2808°
Arg perigee
103.7693°
Mean anomaly
256.3695°
Rev number
2,358

§ Raw data

STARLINK-373911 68779U 26086P   26262.83617581  .00018222  00000+0  56500-3 0  99992 68779  97.2863 298.2808 0001303 103.7693 256.3695 15.33467553 23583

JSON: /api/v1/satellites/68779 · /tle

For live sub-satellite position, see the globe view (requires WebGL).

§ Visibility from observer

Set your observer location to see the next 7 days of passes ≥ 10°. The values pass through the URL so the page stays shareable.

No JS? Fill the form by hand. The geolocation button needs JavaScript.